EW8549 Weather Reports


Display with metric or nautical units.
time (UTC)temp
F
wind
direction
speed
MPH
gust
MPH
rain 1hr
in
rain 24hr
in
rain mn
in
humidity
%
barometer
mb
20260504081536 52 205 0.0 0.0 0.00 0.00 0.00 1 1013.9
20260504044536 54 186 0.0 0.0 0.00 0.00 0.00 1 1015.2
20260504043031 55 186 0.0 0.0 0.00 0.00 0.00 1 1015.3
20260504041538 55 186 0.0 0.0 0.00 0.00 0.00 1 1015.4
20260504040023 55 186 0.0 0.0 0.00 0.00 0.00 1 1015.5
20260504034518 55 294 0.0 0.0 0.00 0.00 0.00 1 1015.7
20260504033013 55 294 0.0 0.0 0.00 0.00 0.00 1 1015.7
20260504031508 55 294 0.0 0.0 0.00 0.00 0.00 1 1015.7
20260504030004 54 294 0.0 0.0 0.00 0.00 0.00 1 1015.8
20260504024600 54 294 0.0 0.0 0.00 0.00 0.00 1 1015.7
20260504023055 55 294 0.0 0.0 0.00 0.00 0.00 1 1015.7
20260504021553 55 294 0.0 0.0 0.00 0.00 0.00 1 1015.6
20260504020049 56 294 0.0 0.0 0.00 0.00 0.00 1 1015.5
20260504014543 57 294 0.0 0.0 0.00 0.00 0.00 20 1015.3
20260504013054 59 294 0.0 0.0 0.00 0.00 0.00 23 1015.1
20260504011534 61 294 0.0 0.0 0.00 0.00 0.00 30 1015.1
20260504010032 63 294 0.0 0.0 0.00 0.00 0.00 42 1014.9
20260504004525 66 294 0.0 0.0 0.00 0.00 0.00 57 1014.8
20260504003020 72 294 0.0 0.0 0.00 0.00 0.00 55 1014.6
20260504001523 76 294 0.0 0.0 0.00 0.00 0.00 43 1014.6
20260504000012 76 294 0.0 0.0 0.00 0.00 0.00 48 1014.8
20260503234507 74 294 0.0 0.0 0.00 0.00 0.00 48 1014.9
20260503233007 74 291 0.0 0.0 0.00 0.00 0.00 40 1014.7
20260503231601 74 296 0.0 0.0 0.00 0.00 0.00 39 1014.9
20260503230058 74 265 0.0 0.0 0.00 0.00 0.00 35 1014.9
20260503224559 74 218 0.0 4.0 0.00 0.00 0.00 37 1015.2
20260503223046 74 272 0.0 0.0 0.00 0.00 0.00 36 1015.1
20260503221556 73 309 0.0 4.0 0.00 0.00 0.00 39 1015.2
20260503220037 73 295 0.0 11.0 0.00 0.00 0.00 38 1015.3
20260503214539 74 297 0.0 0.0 0.00 0.00 0.00 37 1015.4
20260503213028 75 302 0.0 0.0 0.00 0.00 0.00 36 1015.6
20260503211523 74 209 0.0 0.0 0.00 0.00 0.00 40 1015.8
20260503210019 73 167 0.0 5.0 0.00 0.00 0.00 39 1016.2
20260503204515 73 267 0.0 1.0 0.00 0.00 0.00 41 1016.4
20260503203012 72 236 0.0 4.0 0.00 0.00 0.00 41 1016.8
20260503201505 72 275 0.0 1.0 0.00 0.00 0.00 40 1016.9
20260503200001 71 293 0.0 1.0 0.00 0.00 0.00 43 1017.4
20260503194607 71 281 0.0 1.0 0.00 0.00 0.00 40 1017.8
20260503193103 71 289 0.0 10.0 0.00 0.00 0.00 42 1018.0
20260503191607 70 255 0.0 13.0 0.00 0.00 0.00 41 1018.3
20260503190043 70 325 0.0 12.0 0.00 0.00 0.00 44 1018.6
20260503184539 70 260 2.0 14.0 0.00 0.00 0.00 43 1019.0
20260503183036 70 294 0.0 5.0 0.00 0.00 0.00 42 1019.1
20260503181544 70 304 0.0 3.0 0.00 0.00 0.00 42 1019.2
20260503180029 69 248 1.0 8.0 0.00 0.00 0.00 43 1019.6
20260503174521 68 66 0.0 0.0 0.00 0.00 0.00 47 1019.8
20260503173016 68 173 0.0 0.0 0.00 0.00 0.00 48 1020.0
20260503171512 67 127 0.0 0.0 0.00 0.00 0.00 49 1020.5